Wind_Gust
6 8 9 14 18 21 11 15 18 22 17 12 8 6 10 11 16 12 10 13 8 14 17 14 18 18 17 19 17 16 20 26 25 25 25 24 25 25 27 28 29 29 24 18 23 24 25 26 25 22 20 19 19 18 17 18 16 17 17 17 20 19 20 18 14 7 5 6 7 8 12 13 12 12 10 9 9 10 11 11 12 12 13 13 15 16
9 10 15 18 21 23 19 13 15 18 13 9 13 10 13 12 14 16 10 10 13 13 10 16 24 21 18 25 21 20 25 25 27 26 25 26 24 24 24 26 26 23 22 24 26 26 26 26 24 24 22 20 24 18 18 18 17 13 8 9 10 10 10 11 9 9 8 7 13 15 16 13 13 14 14 13 12 13 11 11 12 12 12 13 14 14
8 14 23 20 21 14 9 20 12 11 10 11 10 12 13 15 14 17 12 10 12 24 13 17 25 20 21 23 24 26 25 24 22 25 22 27 24 24 24 23 22 24 22 23 23 23 24 24 24 24 24 21 16 15 16 13 15 13 12 10 9 11 8 8 10 11 9 11 10 15 15 17 14 13 13 13 13 9 11 11 12 13 13 13 14 14
13 11 22 25 19 13 10 9 9 9 10 9 8 13 8 9 13 20 18 13 17 13 13 14 23 18 15 24 26 23 28 26 24 26 26 25 28 26 23 20 24 22 24 24 23 22 22 23 24 24 24 22 20 17 16 15 13 13 13 9 10 13 10 10 10 10 7 9 10 15 15 15 13 11 10 13 14 12 11 15 13 13 15 15 15 14
13 17 11 7 8 7 5 8 10 13 10 5 5 5 7 7 10 7 15 16 12 12 15 18 21 19 15 21 24 20 21 29 28 30 28 26 25 24 24 26 25 24 22 23 22 22 23 24 23 22 22 23 25 20 17 16 17 16 14 13 12 12 11 10 11 8 7 8 8 10 11 13 11 11 13 11 12 12 14 14 14 19 17 16 17 15
13 14 4 14 7 8 9 9 6 9 10 11 8 10 7 5 9 13 12 12 20 16 11 12 18 17 13 14 18 13 21 23 23 30 24 22 21 24 26 23 22 24 21 22 22 22 21 21 22 23 24 25 25 23 18 15 15 15 17 17 16 13 12 12 10 10 9 10 10 11 11 11 10 9 10 11 11 12 15 18 17 15 16 17 18 16
9 9 8 7 4 7 7 5 3 6 5 7 11 8 7 6 7 9 14 10 11 11 12 10 14 19 16 16 12 12 18 18 18 23 21 22 22 23 23 22 23 23 22 22 22 22 24 23 26 25 23 23 23 20 15 14 14 15 15 15 16 16 15 14 12 13 12 10 10 11 11 10 12 13 11 9 9 9 10 12 16 14 14 16 17 16
12 18 14 13 9 8 7 9 5 6 9 7 7 4 8 11 10 12 11 5 12 6 12 10 12 18 13 12 10 13 20 20 22 21 21 23 23 24 24 25 23 24 21 23 23 24 23 24 25 25 24 22 21 19 17 17 15 15 16 16 17 17 17 16 16 16 15 13 14 13 11 12 12 12 15 13 12 9 10 12 16 16 14 15 16 19
4 14 10 12 8 9 7 4 10 3 7 8 8 6 8 7 9 10 7 10 6 6 13 17 7 14 9 8 10 15 23 16 19 19 18 20 22 22 23 23 21 21 21 21 23 23 22 22 22 23 25 22 20 19 19 16 14 12 14 16 17 21 20 18 18 18 19 19 17 13 14 15 13 13 14 15 12 13 12 15 15 14 13 13 17 19
9 5 13 8 7 9 6 6 6 9 9 6 6 10 11 12 8 4 6 7 6 11 9 11 8 15 7 12 15 7 15 17 17 19 20 20 21 20 20 18 18 18 19 21 21 20 21 20 21 20 20 22 20 15 13 12 12 14 13 16 17 19 19 19 20 18 16 15 17 18 17 17 18 18 17 15 16 15 13 16 18 14 13 14 17 22
12 9 7 14 10 8 4 3 7 7 5 7 14 12 13 12 11 9 11 7 11 8 12 9 7 11 14 20 24 25 25 24 17 15 14 16 17 17 17 17 18 17 17 18 17 17 17 15 15 15 18 16 15 14 15 14 11 11 13 13 15 15 16 18 19 18 20 18 17 17 17 17 18 19 18 20 20 19 18 17 16 16 17 16 16 16
14 12 12 8 5 12 4 7 10 4 6 13 14 9 14 14 17 11 11 10 7 13 12 8 9 7 13 9 18 17 12 21 24 20 17 14 14 14 12 13 14 14 13 13 14 12 10 10 11 12 14 13 11 12 14 13 15 16 14 12 12 14 15 16 17 17 17 17 18 17 16 17 19 18 20 21 22 20 21 19 19 17 16 17 17 17
6 8 10 8 7 20 13 10 15 14 16 18 9 16 12 18 18 11 18 13 8 12 6 5 8 7 12 11 11 9 14 14 10 17 19 14 12 10 11 10 10 10 10 13 13 12 13 14 12 11 10 10 11 11 10 11 11 10 12 14 15 13 13 15 15 15 14 13 14 17 18 17 19 20 21 21 22 20 21 21 22 21 19 19 19 20
13 7 13 15 10 18 11 14 17 17 15 15 8 6 10 9 10 9 12 8 13 15 10 7 6 12 11 10 7 10 8 13 12 11 11 13 13 11 9 7 10 11 11 11 11 11 10 9 8 7 8 8 7 7 8 8 11 12 14 13 14 15 12 12 14 16 16 16 15 14 15 15 17 18 19 20 22 22 22 21 22 22 22 21 23 23
7 15 10 10 12 12 12 9 8 9 8 9 6 6 8 12 10 11 10 11 10 16 20 11 11 15 13 13 11 8 7 8 7 10 9 7 8 8 7 8 9 9 7 7 7 7 8 8 7 8 7 7 8 8 9 6 8 8 10 11 12 13 16 16 14 15 16 17 16 15 13 13 14 16 17 19 19 20 21 21 22 22 21 21 23 23
6 15 14 6 6 5 9 9 6 8 12 6 4 11 12 10 13 9 15 9 11 14 17 14 14 5 10 8 7 6 6 5 5 6 6 7 6 5 7 9 7 7 7 7 6 7 8 8 8 7 8 9 9 10 7 7 7 6 7 6 9 12 13 15 17 14 14 15 17 14 15 16 15 15 15 16 18 19 18 20 21 22 21 23 21 20
11 11 6 20 5 7 9 12 11 5 11 10 11 12 10 12 10 6 9 4 3 11 20 8 14 10 8 4 7 7 7 7 6 7 7 9 8 7 9 9 9 9 8 8 9 9 9 7 8 10 10 10 9 8 10 10 9 9 8 8 7 8 9 14 16 17 13 13 15 17 15 15 17 18 17 18 18 20 21 20 20 21 21 21 21 21
7 20 8 7 13 5 10 9 8 5 9 11 8 14 13 5 8 11 11 10 7 11 24 5 11 8 11 20 17 13 11 11 13 12 11 10 8 10 12 11 11 12 12 10 10 9 9 9 11 12 11 10 11 11 10 11 9 9 9 9 9 8 9 11 14 17 16 15 14 16 19 17 15 17 19 19 19 19 20 21 21 21 22 21 22 22
5 18 13 3 5 12 11 10 15 5 8 9 6 10 9 12 11 10 9 10 9 15 19 12 7 10 21 14 15 20 21 20 20 15 12 14 11 12 12 13 12 12 9 10 11 11 11 12 14 14 14 12 10 10 11 10 9 8 8 9 8 11 11 10 8 12 17 15 15 12 15 17 19 17 17 18 19 19 18 20 21 23 24 23 21 23
5 9 20 6 5 11 12 11 9 19 19 6 6 16 5 8 7 7 12 9 9 12 8 17 4 22 18 16 26 29 28 25 21 16 20 17 15 14 13 13 13 13 13 14 13 13 14 14 14 14 13 13 14 14 12 10 9 10 11 8 9 10 9 9 10 10 14 17 16 18 17 16 17 17 17 18 19 20 19 20 20 22 23 24 22 21
6 3 13 14 10 10 18 7 7 7 10 20 21 16 17 11 8 5 8 9 12 15 13 15 22 18 13 11 18 23 25 25 26 28 19 16 14 13 13 14 13 12 11 12 12 11 12 13 11 11 11 12 11 10 9 10 11 12 9 9 11 11 12 11 13 10 13 16 18 17 19 19 20 21 19 18 18 19 20 19 20 21 22 24 23 22
7 6 13 15 18 10 15 11 7 9 8 9 8 11 9 7 11 9 20 9 8 13 20 12 31 18 19 5 12 18 19 22 22 18 16 14 12 13 14 12 12 11 9 10 11 11 12 11 11 10 9 8 9 13 12 13 10 10 11 13 12 11 13 13 14 13 15 13 14 16 18 18 17 19 20 20 20 19 20 20 20 21 22 23 25 22
8 9 7 14 14 14 15 18 18 7 10 14 10 8 5 5 9 8 13 12 10 13 6 8 14 22 14 7 12 13 18 19 16 14 14 11 11 12 14 13 11 10 11 11 11 12 11 9 9 9 10 11 11 12 11 11 11 13 12 13 13 13 15 14 16 15 14 14 14 16 18 17 17 18 20 21 20 20 21 21 21 21 22 24 24 23
7 11 10 13 12 13 17 16 8 4 7 9 5 4 7 6 6 10 11 9 9 10 11 12 18 25 10 7 7 7 7 6 8 10 11 9 10 11 12 11 11 10 11 9 10 10 10 9 9 9 9 10 10 9 12 12 11 12 12 14 14 14 16 16 16 17 15 16 17 18 17 19 18 18 19 20 21 22 22 22 22 21 22 24 24 25
11 10 7 14 23 21 15 16 9 10 12 7 7 7 4 3 4 4 7 5 10 13 14 11 30 21 9 7 6 6 6 7 8 7 7 8 9 10 10 10 10 10 10 11 9 9 9 10 11 11 11 12 10 9 9 11 12 12 15 14 14 16 16 16 16 16 17 17 19 19 18 19 19 19 20 21 21 22 23 22 22 22 22 24 25 24
7 9 10 11 15 17 22 17 18 15 9 16 6 4 6 5 6 13 9 6 13 9 6 15 23 16 12 5 4 5 4 3 5 7 6 6 7 10 10 10 10 9 10 9 9 8 9 10 10 10 10 9 9 11 10 11 13 14 15 17 16 16 17 18 17 18 19 19 19 20 19 19 19 20 20 22 22 22 23 23 21 23 23 24 27 27
9 6 8 13 16 19 20 17 10 4 8 13 16 12 14 4 6 5 9 9 20 10 12 17 18 22 16 13 8 9 8 8 8 9 11 11 10 11 10 9 8 9 9 8 7 9 9 10 11 10 10 11 10 10 12 12 14 14 15 17 17 17 18 19 17 17 17 18 18 20 20 20 21 21 20 21 22 23 24 24 23 24 25 25 25 26
6 9 10 10 14 18 15 13 11 9 13 11 10 15 18 21 9 8 16 25 9 9 32 20 20 22 23 14 10 9 10 9 9 9 9 9 10 11 10 9 10 10 10 10 10 10 10 10 9 10 11 12 13 14 14 14 15 16 16 18 17 17 16 17 18 20 19 18 20 20 22 23 22 22 23 21 22 23 24 24 24 24 25 25 26 27
13 15 9 8 13 14 13 14 10 8 10 12 11 12 16 17 13 20 24 20 9 20 35 24 10 17 15 10 9 11 12 14 10 10 9 9 10 11 10 10 9 9 9 8 8 7 7 10 10 11 12 14 13 14 16 16 16 15 16 17 17 18 20 19 16 17 19 19 20 22 23 23 22 21 22 22 22 23 24 24 24 25 26 26 27 28
12 13 9 10 13 10 9 12 10 13 11 9 12 17 18 16 21 19 24 22 18 22 24 22 20 22 22 13 9 9 8 7 7 7 7 9 11 8 7 8 9 10 8 8 8 8 8 11 12 14 14 15 15 16 17 17 17 18 19 21 20 18 18 18 19 18 20 22 22 21 21 22 22 23 22 22 22 23 24 25 25 26 27 27 27 28
13 19 8 6 8 14 10 11 9 10 12 20 16 14 19 21 19 18 19 21 14 20 23 22 23 32 17 8 7 4 4 5 5 7 7 7 9 9 9 10 11 9 9 9 9 10 12 13 15 15 15 15 15 16 17 18 19 19 19 19 18 18 18 16 20 21 21 23 22 23 22 22 22 22 22 23 23 22 25 29 27 26 27 28 27 27
9 14 4 7 10 19 7 10 14 8 8 15 18 16 21 19 19 22 27 23 14 25 21 9 16 29 9 5 6 6 5 5 6 6 9 12 11 10 11 12 10 10 9 10 11 12 13 14 15 16 16 17 17 17 17 19 20 20 19 18 18 19 18 19 21 22 23 23 23 23 23 22 22 22 23 22 22 24 26 28 28 26 27 29 27 27
15 14 13 6 10 21 8 6 4 6 14 26 27 26 27 23 24 21 16 9 18 16 12 15 24 11 7 5 9 9 7 8 8 9 10 14 14 12 10 9 9 9 10 12 15 17 18 18 18 18 19 18 20 21 21 22 22 22 20 20 20 19 19 20 21 22 23 24 24 24 24 22 22 22 22 21 22 24 26 29 30 29 28 28 27 26
8 11 12 9 20 14 3 3 4 13 26 40 11 19 25 21 24 24 25 21 14 15 19 13 12 5 3 6 6 8 9 10 8 9 11 13 14 12 10 7 9 12 15 17 18 18 18 20 20 20 19 19 21 21 21 21 22 22 21 22 21 22 22 21 22 22 23 24 24 23 23 23 22 22 22 22 23 24 26 27 29 28 28 28 27 27
11 10 11 12 17 18 4 7 16 29 41 13 3 3 8 11 9 20 18 9 9 7 4 5 4 4 6 7 7 8 9 9 7 11 15 14 9 7 8 11 13 16 19 19 20 20 18 18 20 20 21 20 21 23 22 23 20 21 23 22 22 22 22 22 23 22 21 22 23 22 22 22 22 22 22 22 24 25 26 28 28 29 29 27 27 27
14 15 13 15 14 10 12 12 23 41 11 9 11 3 3 8 4 3 8 7 7 11 13 9 8 7 6 7 9 8 9 12 7 12 15 11 5 9 13 16 17 19 21 19 19 21 21 21 21 22 22 23 22 21 22 23 21 22 25 23 22 22 22 22 22 21 21 22 22 22 21 20 20 20 20 22 24 26 27 27 27 29 29 28 26 26
21 11 14 21 14 30 19 17 36 25 37 27 19 14 20 20 13 14 18 11 5 5 6 11 6 7 9 8 9 11 12 13 13 9 7 6 8 12 14 17 18 21 20 21 21 24 23 22 23 23 24 22 22 23 23 22 21 22 24 23 21 20 20 19 20 20 21 21 22 21 20 19 19 20 21 22 24 27 27 27 28 28 26 26 27 27
17 26 19 23 28 24 19 24 26 22 36 21 7 7 3 4 9 7 10 12 4 6 5 11 9 6 8 8 10 10 10 19 26 13 8 7 9 14 16 16 16 18 20 22 24 24 23 22 23 24 24 23 23 23 21 21 22 22 22 22 20 19 19 18 20 20 20 21 20 20 20 19 19 20 21 23 24 27 28 28 27 27 27 27 27 27
15 17 14 28 18 10 13 24 30 31 35 11 5 4 4 7 11 7 8 16 8 5 9 10 8 6 6 6 11 8 14 20 26 19 9 10 15 14 17 18 16 17 19 20 22 25 26 23 22 23 22 21 21 22 20 21 21 21 21 20 20 18 19 19 20 20 20 20 20 20 20 19 19 18 19 23 25 26 28 28 28 27 27 28 27 29
15 11 12 17 23 29 22 22 32 33 32 6 9 6 6 7 6 10 17 22 10 10 9 8 7 7 7 5 6 6 8 16 25 27 20 19 19 17 16 20 21 21 21 20 20 21 24 24 22 21 19 21 22 21 21 20 19 17 20 20 18 19 20 20 21 20 19 19 20 20 19 17 16 18 20 24 26 27 27 26 27 27 27 27 27 28
17 16 15 29 27 20 18 27 21 28 17 5 6 6 5 5 9 12 28 14 9 8 8 6 7 6 6 7 6 14 12 13 18 22 23 22 22 21 18 17 19 20 23 25 26 22 22 21 21 21 20 20 20 20 19 18 17 19 19 19 18 20 21 20 19 19 19 20 20 20 18 15 15 21 23 23 25 27 26 26 26 27 28 29 29 28
9 13 10 7 18 28 25 23 33 21 13 5 3 11 8 7 17 19 13 6 15 9 8 7 7 6 8 8 9 11 14 12 13 16 19 20 23 25 23 22 23 23 21 21 23 24 24 23 21 21 22 21 22 21 19 18 19 20 20 18 20 21 21 19 19 20 19 20 20 19 16 15 18 21 22 24 25 25 26 26 27 28 29 29 29 29
17 22 13 18 24 12 13 21 18 30 11 5 8 5 3 13 14 9 9 5 8 10 9 7 8 8 8 9 9 11 13 15 14 16 18 19 21 21 21 23 23 24 26 25 24 22 24 24 24 23 20 22 20 20 20 19 20 20 19 20 22 22 20 19 19 19 19 20 19 16 16 17 20 23 22 23 24 26 27 30 29 30 30 28 28 28
8 13 15 14 15 18 16 30 29 12 5 6 8 12 9 9 11 11 11 7 7 9 8 7 7 9 8 10 13 13 12 13 15 16 18 16 17 20 21 20 21 23 25 25 24 24 23 23 22 22 20 22 20 20 20 20 20 20 21 22 22 20 20 20 20 18 18 18 16 15 16 19 20 22 22 23 25 26 28 28 25 24 23 25 23 22
10 17 13 15 8 22 22 13 9 7 8 7 7 5 7 7 8 12 9 12 11 10 9 8 9 7 9 9 11 12 17 14 14 15 17 19 20 20 21 21 22 23 24 24 25 24 21 21 22 22 21 21 19 20 19 17 18 20 20 20 19 20 21 21 20 19 18 17 15 15 17 20 23 24 24 24 24 25 26 23 23 20 16 15 18 18
5 5 4 7 15 7 12 12 12 6 8 5 6 7 10 7 5 9 9 7 7 7 12 11 7 8 8 7 13 14 14 16 18 17 17 18 21 21 21 23 23 23 25 26 25 24 23 22 20 20 20 20 18 18 18 16 14 17 19 18 18 19 20 21 21 20 18 15 14 15 20 24 27 25 25 25 24 21 21 21 20 20 18 14 15 17
5 5 8 12 6 6 19 7 7 12 7 7 9 7 5 5 8 9 7 6 6 7 7 6 8 8 8 7 8 13 15 16 19 19 18 20 21 20 21 22 23 24 25 26 25 23 23 19 20 20 22 21 16 15 15 14 15 15 16 17 18 18 20 20 21 19 16 15 16 16 21 25 27 26 24 22 21 21 21 19 18 16 15 14 15 15
10 6 9 8 7 14 21 5 5 5 8 9 10 8 6 6 7 6 7 7 7 8 7 8 5 6 6 10 11 13 15 16 18 20 20 20 22 23 23 22 24 24 24 23 23 21 19 18 17 20 21 22 17 16 16 16 16 16 17 17 17 18 20 20 20 19 16 16 15 16 19 25 25 28 25 22 19 19 18 17 18 16 16 19 17 18
7 6 9 5 12 12 7 7 7 6 8 7 5 5 6 10 10 8 6 6 6 6 6 6 6 8 6 9 8 10 15 16 15 16 20 21 21 22 23 25 24 24 24 22 21 18 18 18 21 20 21 20 16 16 16 16 17 17 18 18 18 18 19 21 20 20 16 15 15 17 21 25 25 20 21 20 18 15 15 16 20 19 21 18 16 16
7 16 6 8 20 24 25 15 6 15 17 9 9 10 9 8 8 8 6 6 7 7 7 6 7 7 7 6 7 9 13 14 13 15 18 19 19 20 22 24 23 23 23 20 19 18 17 19 19 20 23 19 19 18 18 17 18 18 17 17 17 18 19 21 22 19 17 15 15 18 20 23 26 21 21 20 20 19 19 14 13 19 22 19 20 26
16 13 15 23 24 26 9 12 12 12 9 10 10 8 6 8 7 9 10 9 8 7 6 6 10 11 9 6 6 9 10 12 14 15 18 19 20 20 22 22 23 22 21 20 17 17 17 18 21 20 22 22 21 22 21 18 18 20 19 18 18 18 19 18 20 18 17 16 14 18 20 24 22 22 20 21 20 19 16 17 22 24 26 26 27 29
Wind_Speed
1 2 2 5 7 8 5 6 8 6 4 2 2 0 3 1 6 3 3 6 1 7 9 5 10 11 10 9 9 10 12 16 16 14 11 10 10 11 16 16 17 17 14 11 13 13 12 12 11 10 11 11 11 10 10 10 9 7 5 5 6 4 4 3 4 3 2 1 1 1 1 2 3 3 3 4 4 4 5 6 7 6 7 7 9 9
3 3 4 5 7 7 8 5 4 1 1 2 1 0 4 2 2 4 1 2 7 7 2 3 14 11 9 10 11 11 16 16 12 10 11 10 10 10 14 16 15 14 11 12 12 12 12 12 12 12 11 10 14 10 10 11 9 7 5 6 5 5 5 5 4 3 2 1 1 1 3 3 3 4 4 5 4 4 4 4 6 6 7 7 7 8
3 1 4 5 5 1 3 0 2 4 2 1 3 2 1 4 4 9 4 2 1 13 1 1 14 9 11 12 14 14 14 12 10 10 9 8 8 9 11 11 11 12 12 12 11 12 11 12 12 11 10 10 10 10 10 8 10 9 7 6 5 4 4 4 4 4 4 2 2 1 2 2 3 3 3 4 4 4 5 6 6 6 6 6 6 7
5 4 6 5 3 1 2 5 6 3 3 3 2 1 3 3 1 3 3 5 6 4 7 5 12 5 8 12 14 12 12 11 10 10 10 8 9 10 10 9 11 11 11 12 10 10 10 10 9 8 8 8 8 8 8 8 7 6 7 6 6 5 4 4 4 3 4 4 4 3 3 4 4 4 3 4 5 5 5 6 4 4 5 6 6 7
5 7 1 2 3 1 2 2 4 2 1 0 2 1 1 1 3 4 2 3 4 6 9 11 8 5 5 7 7 8 9 9 8 7 8 8 9 8 8 10 9 10 8 9 9 8 8 9 8 7 6 6 7 7 7 6 5 5 6 5 5 5 5 4 6 5 3 3 3 4 3 3 3 3 3 3 4 5 5 6 5 6 6 7 8 8
7 4 1 2 2 4 1 1 1 3 1 2 3 6 5 3 3 4 2 2 2 2 6 4 5 2 4 6 6 4 5 7 5 6 6 5 5 6 9 8 7 7 5 6 7 6 6 6 5 6 6 6 6 7 5 3 4 5 6 5 5 5 5 6 6 6 5 6 6 6 6 6 5 4 5 6 6 5 4 5 5 5 5 7 8 8
1 2 4 1 0 2 3 1 1 1 1 1 2 6 5 4 3 2 3 2 0 2 2 0 5 2 1 3 6 5 4 4 3 4 3 3 3 5 5 5 5 5 5 5 4 4 5 4 6 6 6 6 7 5 3 3 5 5 4 4 3 4 5 5 5 6 5 6 6 7 7 6 7 6 5 5 4 4 5 5 6 7 6 6 7 8
1 4 6 7 5 4 4 5 0 2 4 1 1 3 2 1 2 3 2 3 4 2 2 3 4 7 3 4 6 7 5 3 3 2 3 2 3 2 3 2 3 3 3 4 4 4 4 4 5 5 4 4 4 3 4 5 4 4 4 3 4 3 4 4 4 5 6 5 5 5 6 6 6 6 6 6 5 4 4 4 5 5 6 7 6 6
1 4 4 5 4 5 2 1 2 2 2 2 2 0 3 2 3 3 3 3 1 0 6 2 1 5 2 2 6 9 7 2 2 2 2 1 1 1 1 1 1 2 3 3 5 5 5 5 4 3 4 3 3 3 4 3 2 2 2 3 3 5 6 6 5 5 6 6 5 5 5 5 5 4 4 4 4 5 5 5 4 4 5 6 7 6
2 1 1 3 2 2 3 1 0 6 2 3 2 1 2 3 3 1 3 3 0 2 4 3 1 2 2 4 7 4 3 8 7 6 5 4 4 3 3 2 2 1 3 2 3 3 3 2 2 2 2 3 2 2 1 2 3 3 3 4 4 5 5 4 5 5 6 6 5 6 6 6 5 5 4 3 4 5 6 6 6 5 5 5 6 6
2 5 4 4 0 1 1 2 0 1 1 3 3 1 1 3 2 2 6 2 3 1 6 4 0 3 3 9 12 11 10 12 9 5 4 4 4 4 3 3 3 3 2 3 3 2 2 1 1 1 3 1 1 1 2 3 3 3 3 3 4 3 3 4 5 5 5 4 4 5 4 4 6 6 6 7 6 5 5 5 6 7 6 5 5 6
3 1 2 1 1 2 1 1 0 0 2 3 3 1 6 5 7 3 4 4 1 4 3 1 1 2 4 2 9 9 1 12 15 13 11 8 6 5 4 3 3 3 2 1 1 1 1 1 1 2 3 2 1 2 2 1 1 1 1 2 4 3 3 4 4 5 5 4 4 3 3 4 4 4 5 6 7 7 7 6 6 6 5 6 6 4
1 3 2 5 3 5 1 2 5 4 5 9 4 8 6 5 5 1 3 1 2 4 0 3 2 2 4 4 4 6 4 9 6 9 11 10 7 6 4 5 4 3 3 2 2 2 2 3 4 4 4 3 3 3 2 2 2 2 1 1 4 3 2 1 1 1 2 2 3 3 3 3 3 3 3 3 4 4 5 5 5 6 5 5 6 7
2 3 5 4 4 2 2 4 5 7 5 7 3 2 3 1 3 2 4 1 4 5 4 1 2 3 3 4 1 3 4 6 7 7 7 8 9 7 6 5 4 3 3 3 3 4 4 4 5 4 4 4 4 4 4 4 3 1 1 1 0 1 3 2 3 2 1 1 2 2 2 3 2 3 3 3 4 4 4 4 5 5 6 6 5 6
1 3 3 1 0 2 2 3 3 4 2 3 2 1 4 5 1 2 2 2 3 3 3 3 2 3 1 2 5 1 2 4 5 6 5 5 5 5 4 3 3 3 4 3 3 4 5 5 4 5 4 5 5 6 6 4 1 1 1 2 2 2 2 2 2 2 2 3 3 3 3 3 2 4 4 4 4 4 5 4 3 4 4 5 6 6
1 5 6 3 1 1 1 1 2 2 1 2 2 3 4 2 6 3 4 2 2 2 4 1 3 1 2 1 2 1 4 3 4 4 3 5 4 4 3 4 4 4 4 3 4 4 5 5 5 4 5 6 6 7 5 4 3 3 4 4 4 3 3 4 4 4 2 1 2 2 3 4 4 3 3 4 4 5 4 5 5 4 4 5 5 6
2 2 2 7 1 2 1 1 1 1 0 1 1 1 1 3 5 1 1 1 1 3 6 1 6 3 3 1 1 3 4 4 4 5 5 6 5 4 5 5 5 4 4 4 5 6 6 5 5 6 6 6 6 5 6 6 5 6 5 5 5 5 4 6 5 5 4 5 5 4 2 3 3 4 4 5 6 6 5 5 5 5 5 5 4 6
3 5 2 2 2 1 1 1 1 0 3 5 0 3 1 2 3 3 3 2 2 3 6 1 5 3 1 5 3 3 7 6 9 8 7 7 6 5 6 6 6 6 6 6 5 5 5 5 6 7 7 7 7 7 6 7 6 5 6 6 6 5 6 7 6 5 4 4 5 6 7 6 4 4 4 4 6 6 6 7 6 5 6 5 5 5
2 3 3 1 0 6 4 1 3 1 2 2 2 1 1 3 0 2 2 2 1 3 4 3 1 3 7 6 4 8 11 13 13 10 8 10 8 8 7 7 6 5 5 6 7 7 6 7 8 9 9 8 6 6 7 6 6 5 5 6 6 7 7 7 5 4 5 5 5 5 6 6 7 6 5 5 5 5 5 7 7 8 7 6 5 5
1 2 5 2 1 3 3 3 2 2 5 2 2 1 0 2 2 2 3 2 4 4 2 7 1 6 6 6 15 16 17 16 14 10 13 11 9 9 7 6 7 6 7 7 7 7 7 8 8 9 8 8 9 8 6 5 5 7 7 5 6 6 6 6 7 7 7 7 6 7 6 7 7 7 6 6 5 5 6 6 7 7 8 9 7 6
1 1 3 2 3 2 2 0 2 3 1 3 4 2 3 1 2 1 0 2 3 2 3 2 6 5 5 4 10 15 16 16 16 17 12 10 9 7 7 7 7 7 7 7 7 7 8 8 7 7 5 6 7 6 5 6 7 7 5 6 7 8 8 7 9 7 8 7 8 8 9 10 8 9 7 7 7 6 7 6 6 6 7 7 9 8
2 1 5 4 5 2 7 4 2 4 3 3 3 3 3 0 1 1 9 3 1 2 4 3 9 5 7 0 4 8 11 13 14 13 9 9 8 7 7 7 7 7 6 5 5 4 5 6 6 5 4 4 5 8 8 8 5 7 8 8 8 7 8 9 9 8 9 8 8 9 10 11 9 8 7 7 7 7 7 6 6 6 6 7 9 8
2 3 1 3 6 6 7 4 3 2 2 2 5 2 3 2 4 3 2 4 2 3 3 2 2 9 5 2 4 6 5 9 10 9 9 7 7 6 7 7 7 5 5 5 5 5 6 5 5 5 5 7 7 7 7 7 7 8 8 8 8 8 10 9 10 9 8 8 9 10 11 10 9 9 8 8 8 8 8 8 7 6 7 7 8 8
3 1 0 4 6 7 5 1 3 3 5 4 2 2 2 0 3 4 3 2 2 2 1 2 3 6 4 3 3 2 0 3 5 7 7 5 5 5 6 6 5 5 5 4 5 5 5 5 4 3 4 6 5 5 6 7 7 8 8 9 9 9 10 10 10 10 10 10 11 12 10 10 10 10 10 9 9 9 9 8 7 6 7 8 7 8
1 2 3 2 4 6 4 4 4 3 3 1 2 2 1 2 3 2 4 1 1 6 7 4 11 4 2 3 3 3 3 4 5 3 3 5 3 4 3 4 4 4 5 6 6 5 4 3 4 4 5 5 6 6 6 6 7 8 9 9 9 10 10 10 10 10 11 11 12 12 11 11 10 10 11 11 10 10 9 8 7 6 8 8 8 8
1 3 4 2 5 6 4 1 2 3 4 1 1 1 1 4 4 1 2 1 3 3 4 4 5 7 3 2 2 3 2 2 1 2 1 1 3 1 3 4 4 4 5 5 6 5 4 3 4 4 5 5 6 7 7 7 7 8 9 10 10 10 11 11 10 11 12 11 12 12 12 12 11 12 13 13 12 12 11 9 7 8 7 8 9 8
1 1 3 6 8 9 10 6 3 3 1 2 3 1 3 1 2 2 4 2 8 3 5 7 7 11 7 2 2 3 2 5 5 3 3 1 2 2 3 4 4 4 5 5 5 4 3 4 4 5 5 7 7 7 7 8 9 9 10 11 11 10 11 11 10 11 10 11 11 12 12 12 13 13 13 12 12 11 9 9 9 8 9 8 9 9
2 1 5 6 8 10 8 7 5 5 6 5 6 7 5 4 4 5 6 9 4 0 13 5 11 10 13 7 6 5 5 4 4 4 3 2 2 2 3 3 5 4 5 4 4 5 5 4 5 6 8 8 8 9 9 9 9 10 10 11 10 10 9 9 10 11 11 11 12 12 13 13 13 13 14 13 12 11 10 9 9 9 9 8 9 9
5 4 4 4 8 9 8 6 5 2 5 6 7 8 7 7 5 8 10 8 4 7 15 10 5 6 6 6 5 6 8 8 7 5 3 2 2 3 3 4 5 6 6 5 5 4 5 6 7 7 8 9 9 10 11 10 10 9 10 10 11 10 10 9 9 11 11 12 12 13 13 13 13 12 13 13 13 12 11 11 10 9 9 8 9 8
3 5 5 5 7 6 6 7 5 7 5 4 8 10 10 9 12 13 12 8 11 14 15 12 10 11 12 7 5 5 5 4 2 0 0 0 3 4 4 4 5 5 4 4 5 4 5 7 8 9 9 10 10 11 11 11 11 11 12 13 12 11 10 8 9 11 12 13 13 13 13 13 13 13 13 13 13 13 12 11 10 9 10 10 10 10
4 5 5 2 2 6 7 7 4 6 8 9 11 9 9 11 12 11 7 12 7 9 14 14 13 18 6 2 1 2 2 2 2 0 1 4 4 4 4 4 5 4 4 4 5 7 7 9 10 10 10 10 10 11 11 11 11 11 12 12 11 11 11 9 11 12 13 14 14 13 13 13 13 12 14 14 13 13 12 12 11 10 10 10 10 10
3 4 2 2 2 7 2 7 9 3 4 9 10 4 10 10 9 9 9 11 6 14 14 6 8 12 2 1 3 2 3 2 1 1 3 4 4 4 5 4 4 4 5 6 7 8 9 9 10 10 9 9 9 10 10 11 12 12 12 11 11 11 11 11 12 13 14 14 14 14 14 13 13 13 14 13 14 13 13 12 12 11 10 10 10 10
5 5 3 2 3 8 4 3 0 1 5 12 13 12 17 15 14 10 7 5 11 10 6 8 13 5 3 1 3 1 1 0 0 3 4 6 5 2 3 3 3 4 5 7 8 9 9 9 9 8 8 9 10 11 12 13 13 13 12 12 12 11 11 12 13 13 14 14 14 14 13 13 13 13 13 13 13 13 12 13 12 11 10 11 11 10
4 6 4 3 4 5 1 2 1 2 8 15 3 12 17 13 15 14 13 13 9 8 7 6 6 2 2 2 4 1 1 1 1 4 5 5 3 1 2 4 5 6 7 8 8 9 9 10 10 10 10 10 11 13 13 13 13 13 12 12 11 11 11 12 13 13 14 14 14 14 14 13 14 14 13 13 12 12 12 11 12 11 10 9 10 11
6 4 4 3 2 5 1 2 1 9 15 2 1 1 5 8 6 14 13 6 6 5 2 2 2 3 3 3 2 1 2 3 4 6 7 1 2 1 2 4 5 7 10 10 11 12 11 12 12 13 13 12 13 14 13 13 12 11 12 11 12 12 12 12 13 13 13 13 14 13 13 13 13 13 13 12 11 11 11 11 10 11 11 10 12 12
7 7 4 2 3 2 1 2 2 12 2 1 4 1 1 3 1 2 4 3 4 7 8 5 4 2 3 2 2 2 3 4 4 5 5 2 2 0 3 6 8 8 10 10 11 12 13 13 13 13 13 13 13 13 13 13 13 12 12 11 12 12 12 12 12 13 13 13 13 13 13 12 12 12 12 12 11 11 11 11 12 13 12 10 12 12
11 4 4 5 4 9 6 8 14 7 12 11 4 3 7 6 6 8 8 3 2 3 4 7 4 3 2 2 1 2 3 1 1 2 1 3 2 2 4 7 7 9 9 10 10 11 11 11 12 12 13 14 13 14 14 13 12 12 12 11 11 11 11 11 11 12 12 13 13 13 12 11 12 12 12 11 11 12 12 12 13 12 10 11 13 13
9 13 7 7 6 10 8 9 5 6 13 7 2 3 1 1 4 4 4 2 1 4 3 7 6 4 4 2 1 2 2 1 2 2 5 4 2 7 7 7 7 9 10 11 11 10 10 10 12 13 13 14 14 14 13 12 12 12 11 11 11 11 11 11 12 12 12 12 12 12 12 12 11 12 12 11 12 12 12 11 10 12 10 12 14 15
6 4 4 13 3 3 3 7 7 10 9 4 2 1 1 1 6 4 2 6 3 4 4 5 5 4 4 2 0 1 6 6 6 5 5 2 5 5 8 9 8 9 9 9 10 12 11 11 12 14 14 13 14 14 13 13 13 11 12 12 12 11 11 12 12 12 12 12 12 12 12 11 11 11 11 11 11 11 13 13 13 13 12 13 13 15
9 3 3 5 9 10 9 6 11 5 4 1 4 1 0 2 1 4 5 6 5 4 5 4 5 4 4 2 3 3 2 4 7 6 2 2 4 5 6 9 9 9 9 8 9 10 12 13 13 12 12 13 14 14 13 12 11 11 11 12 11 12 12 12 12 12 12 12 12 12 11 10 9 8 9 11 12 12 13 13 13 14 14 14 13 13
5 3 3 12 11 7 6 8 2 5 2 2 2 2 2 1 3 2 10 4 5 5 5 4 5 4 4 4 3 1 6 6 6 5 3 4 4 6 6 6 8 7 9 10 11 11 10 10 11 12 12 12 12 12 12 11 10 11 11 11 11 13 13 12 11 12 12 12 12 12 11 9 8 10 11 10 12 13 13 12 13 15 15 15 15 15
2 4 1 2 9 12 10 8 8 3 3 3 1 5 3 1 3 6 4 1 9 6 5 5 5 4 5 5 5 6 6 6 6 5 5 5 6 6 6 6 6 7 8 9 12 11 9 9 10 11 11 11 11 11 11 11 12 12 12 11 12 14 13 12 12 12 12 12 12 12 10 10 10 9 10 11 11 13 14 14 14 14 16 15 15 16
4 5 4 7 1 4 3 4 2 9 1 3 5 2 1 2 4 4 4 2 5 6 6 4 4 4 5 5 6 7 6 5 5 7 7 6 5 6 5 6 7 9 10 11 11 10 11 10 10 11 12 12 12 12 12 12 13 13 12 12 14 13 12 12 11 12 11 12 12 10 10 10 10 10 8 10 13 14 16 16 15 17 16 16 16 16
1 2 2 2 3 5 4 6 5 0 2 1 4 3 3 4 4 6 6 4 3 4 5 4 5 5 5 6 6 6 6 6 6 6 6 6 5 4 4 6 7 9 9 10 10 10 10 9 10 11 12 13 12 12 12 12 12 12 13 14 13 12 12 12 12 11 11 11 10 10 9 9 11 11 12 13 13 14 16 16 14 13 12 13 12 12
3 6 2 2 1 4 4 3 3 3 2 2 3 1 2 2 5 8 6 7 6 5 4 3 6 5 6 6 5 5 4 5 6 5 4 6 5 5 6 8 9 10 10 10 11 11 9 10 12 12 12 11 12 11 11 10 11 13 12 12 11 12 13 13 13 12 11 10 9 9 9 11 11 12 12 12 14 14 14 14 14 11 9 8 9 10
3 2 1 2 3 2 4 7 2 2 3 3 1 1 5 4 3 5 6 4 4 5 7 6 5 5 5 4 4 4 5 5 4 5 5 5 5 5 6 7 9 9 9 9 10 10 10 10 10 11 12 13 11 10 9 9 8 11 11 10 11 12 12 12 13 13 11 10 9 9 9 11 12 13 13 14 12 12 12 12 11 10 10 8 8 9
2 2 2 4 2 1 4 2 3 3 0 0 1 1 0 2 4 5 4 4 4 4 5 4 5 5 5 4 5 5 5 4 4 5 4 4 5 6 7 8 9 10 9 9 11 11 11 10 11 13 14 14 9 8 8 10 9 9 10 10 11 11 12 12 13 12 10 9 9 9 9 10 11 12 12 13 11 10 11 10 10 9 7 7 7 8
2 3 3 4 3 5 5 0 1 1 1 1 3 3 3 2 2 3 4 4 4 5 5 5 4 2 2 2 4 4 5 4 4 4 4 4 5 6 7 8 9 10 9 8 10 10 9 9 10 13 13 13 9 8 8 8 9 10 9 9 10 11 11 11 11 12 10 10 9 9 10 10 15 15 11 12 10 10 9 9 8 7 8 10 11 11
2 3 2 1 2 3 3 3 2 3 3 1 1 2 3 4 4 4 4 3 2 3 2 2 3 3 3 5 3 3 3 5 3 3 4 4 5 6 7 8 9 10 9 8 9 9 11 11 13 12 13 12 9 9 9 9 9 10 10 9 10 11 10 11 13 13 11 9 8 9 10 10 12 11 11 10 9 8 5 7 10 10 10 10 8 8
1 3 1 1 3 4 5 3 1 1 3 2 2 5 5 3 3 2 0 1 2 3 3 3 3 1 3 3 3 3 3 4 3 2 3 4 5 7 8 8 9 10 8 7 7 9 10 11 12 12 14 12 11 11 11 10 10 10 10 9 9 10 10 12 12 12 10 8 8 10 11 12 12 11 11 10 8 9 7 5 10 13 11 8 15 21
4 4 3 5 3 5 2 3 3 1 1 4 5 5 3 1 2 2 3 4 5 4 4 4 4 2 1 1 2 2 3 3 4 2 3 4 6 7 8 8 9 8 8 9 10 10 11 11 12 12 13 12 12 12 12 11 11 11 10 10 10 10 10 10 11 10 9 9 7 10 11 12 11 12 10 8 8 7 7 9 12 19 21 21 21 21
Wind_Direction
84 71 302 282 266 270 264 219 219 240 194 194 117 123 259 258 281 268 270 261 52 78 26 41 64 50 39 37 35 41 53 57 56 56 53 50 54 62 73 71 75 72 73 72 72 70 71 69 65 65 64 66 64 56 57 60 55 52 51 54 46 5 3 17 22 47 96 136 285 38 155 228 247 251 234 242 233 234 230 226 218 219 226 226 229 225
64 42 293 236 242 259 279 272 231 262 143 200 203 320 293 176 281 252 276 331 318 114 10 24 66 47 45 41 46 46 55 50 44 51 54 57 55 60 66 74 72 78 77 74 69 66 67 66 64 64 63 61 64 52 55 56 56 56 47 49 33 5 4 5 1 0 347 337 265 199 243 237 254 248 248 258 240 239 246 249 239 222 224 226 228 232
26 207 255 265 271 315 324 310 171 167 198 116 205 181 17 282 234 293 299 268 77 85 32 48 74 60 54 56 57 55 58 57 46 45 49 52 58 63 65 69 73 72 71 69 69 67 68 67 62 63 62 59 63 57 53 51 53 45 45 41 35 16 5 356 350 9 355 319 315 270 259 220 273 267 266 267 262 262 254 244 239 244 247 239 236 237
359 293 248 261 339 356 67 47 100 87 71 111 100 69 208 235 69 308 290 339 358 124 157 96 88 70 68 66 66 60 63 68 57 52 51 48 58 62 63 69 77 75 74 70 68 71 67 66 67 65 63 63 65 62 55 50 52 49 48 44 37 27 16 1 355 6 352 335 330 293 267 256 234 279 286 277 281 274 273 272 270 259 255 257 254 248
220 249 317 350 31 1 316 58 85 77 310 336 135 155 242 260 235 167 257 7 16 80 123 106 75 53 27 82 75 66 63 62 50 51 53 53 56 61 71 70 69 80 81 84 76 70 70 71 65 69 71 68 70 69 66 58 55 53 48 41 37 31 24 16 18 6 347 5 10 347 307 269 286 264 283 289 301 301 293 291 274 261 247 245 244 246
296 266 227 11 23 34 50 345 70 121 226 323 250 189 215 222 241 274 309 83 29 200 257 130 42 347 294 97 93 77 56 49 31 53 49 47 59 69 74 77 78 74 68 84 83 75 71 76 80 72 70 67 64 60 59 68 64 59 48 38 32 31 21 20 17 6 12 23 26 26 27 27 19 13 10 360 341 327 311 290 295 277 256 252 245 238
236 358 46 345 73 59 71 102 235 146 141 107 263 195 228 218 217 286 319 66 337 190 258 160 133 242 313 135 131 103 78 66 36 43 46 43 59 74 81 83 78 84 76 61 63 68 70 59 70 60 57 54 58 42 37 52 58 61 61 46 40 38 29 13 19 14 14 31 22 29 30 25 24 13 15 348 326 310 304 306 305 302 299 272 259 254
2 328 21 36 52 63 62 39 295 122 95 255 236 151 158 205 266 262 183 183 224 268 311 51 112 142 207 239 151 129 111 97 52 46 42 65 63 59 69 61 89 96 104 105 90 77 67 56 53 55 31 43 50 46 43 47 42 53 53 52 46 37 42 23 15 28 27 40 30 33 30 29 27 14 356 347 328 284 290 272 270 275 283 285 274 263
95 342 32 13 47 57 70 204 296 141 139 222 261 163 276 235 251 214 167 179 191 163 270 343 63 67 237 234 165 147 138 151 194 178 190 165 157 132 132 121 113 113 104 104 100 83 74 64 49 46 47 17 27 27 41 43 45 64 59 60 45 34 27 14 14 30 30 36 41 40 35 33 22 3 356 342 349 347 335 310 300 278 274 281 280 272
298 134 267 109 96 26 247 250 188 157 56 284 251 41 98 77 66 61 153 126 336 87 250 244 220 124 269 193 183 197 159 192 193 196 189 198 186 185 182 192 172 135 109 102 103 109 95 82 58 39 50 38 10 3 17 28 33 28 29 40 43 34 20 4 14 21 26 27 25 37 24 26 8 0 347 1 5 359 349 349 349 344 322 297 287 278
287 306 168 85 352 231 240 266 163 101 226 283 47 46 340 58 6 14 58 85 66 260 254 228 242 126 238 209 194 176 212 183 158 181 197 208 219 224 209 189 190 152 135 112 93 77 66 28 90 108 88 65 27 9 48 40 27 17 31 22 46 15 359 5 12 17 21 14 23 27 20 17 7 357 355 356 4 3 360 0 350 347 336 313 290 281
357 36 103 260 301 290 102 240 345 29 289 76 45 45 359 341 4 34 344 33 132 277 262 255 303 145 246 262 213 225 41 160 167 173 178 193 206 204 211 222 216 206 188 168 111 103 44 79 72 80 105 100 61 47 55 37 15 26 359 33 43 7 7 2 1 5 1 5 4 7 9 9 357 357 357 355 346 346 349 352 346 338 332 336 323 296
95 124 281 305 299 37 339 38 311 358 4 32 37 29 24 295 27 287 9 280 219 206 317 356 356 15 235 216 247 191 194 157 175 167 171 182 198 210 223 225 227 225 226 221 215 223 227 197 178 175 180 191 167 149 193 208 215 216 191 97 60 354 323 308 296 324 317 341 340 340 341 339 342 342 342 332 323 328 332 335 333 336 337 333 327 336
285 294 353 310 3 20 88 69 325 1 345 11 57 96 76 32 29 261 276 239 300 289 270 326 345 253 245 310 333 171 183 150 154 172 173 180 189 198 212 225 226 234 216 212 211 218 220 217 221 213 211 203 204 216 220 225 217 227 43 29 102 250 237 239 221 217 217 251 276 288 291 303 318 313 319 313 308 307 305 305 316 323 325 324 322 319
348 339 294 52 329 327 65 145 177 190 282 271 167 140 195 138 167 271 225 238 219 221 285 277 12 235 350 240 311 204 149 146 160 170 184 195 197 202 221 237 253 248 244 220 222 224 223 232 227 224 220 218 217 218 224 224 220 270 263 248 233 279 276 248 233 199 212 232 240 244 256 271 281 291 301 300 296 301 307 297 288 292 299 307 312 313
215 222 254 245 221 64 100 286 137 99 50 280 166 85 72 247 135 207 209 167 255 332 337 268 199 181 166 253 307 51 94 121 155 184 186 212 226 232 252 240 237 243 250 253 243 252 250 239 243 247 243 234 228 229 231 233 239 233 242 244 245 239 268 282 300 304 292 233 217 229 246 244 258 284 290 283 290 288 281 294 298 288 273 281 291 300
19 294 271 313 108 136 143 212 272 136 338 270 85 220 225 169 119 70 21 15 64 51 256 173 326 303 295 338 80 88 131 181 194 211 214 219 227 233 235 244 249 250 256 254 240 237 242 249 248 240 240 241 240 241 232 228 224 222 232 240 256 268 283 286 281 289 308 317 331 299 247 238 246 246 258 276 284 287 287 288 288 288 283 274 276 290
154 243 293 133 241 229 226 218 224 357 148 74 19 244 171 110 120 134 236 343 63 202 262 70 220 277 43 288 175 136 189 209 217 215 215 224 226 227 233 236 238 239 238 245 251 249 245 245 246 246 246 242 237 235 240 239 235 229 231 233 231 251 262 268 272 276 283 301 304 301 309 303 277 266 261 255 272 285 298 299 296 291 291 285 283 287
118 325 300 273 327 272 345 64 17 340 3 169 198 217 118 267 270 323 87 287 270 263 274 303 275 255 186 237 151 206 201 210 214 212 213 223 221 225 234 243 253 262 270 265 254 254 254 244 240 239 240 246 254 255 249 256 255 248 243 242 237 240 235 245 269 278 284 270 259 267 274 284 296 292 284 271 263 271 281 293 301 304 297 294 279 285
42 188 295 301 169 307 344 62 246 294 331 23 45 41 337 119 179 131 209 191 120 264 31 289 35 242 205 215 187 200 204 203 200 205 217 213 213 216 222 233 241 246 241 241 246 247 246 248 244 242 243 248 249 253 262 268 271 260 252 258 255 259 272 278 274 269 269 266 262 266 268 269 261 267 272 273 261 257 256 261 272 285 300 301 298 283
107 98 228 278 300 348 331 144 206 179 270 333 28 328 352 353 221 68 208 156 189 194 194 227 307 278 264 208 182 207 201 199 194 203 204 207 216 215 218 224 235 236 233 231 233 242 246 249 258 264 278 279 277 272 271 263 259 262 278 270 260 254 259 258 255 256 255 257 261 260 261 260 257 257 253 259 257 253 255 255 258 265 269 293 295 299
91 126 203 307 359 317 246 244 203 165 176 168 162 209 176 155 308 247 267 20 66 153 237 148 258 259 270 265 232 217 213 199 202 195 190 206 212 210 221 234 232 239 248 248 256 269 289 292 292 301 289 274 276 270 263 262 274 278 266 257 261 257 250 248 256 245 248 250 247 250 254 257 257 254 255 254 265 265 263 254 246 250 264 270 281 293
144 163 99 252 207 230 252 273 233 210 128 170 138 236 169 137 99 106 214 277 2 255 119 148 278 269 248 290 280 255 228 205 189 174 192 201 208 211 226 232 244 240 261 290 300 296 285 276 276 285 296 299 291 281 278 276 264 261 263 261 253 244 250 242 246 251 250 251 249 247 248 253 259 260 257 254 255 257 261 262 252 239 252 261 272 277
113 82 55 288 308 296 316 313 48 85 102 62 15 66 100 223 174 175 168 181 170 288 303 322 233 254 284 331 319 325 109 139 144 169 182 204 203 217 226 244 277 314 312 299 283 286 284 287 285 306 330 319 305 293 281 271 266 261 258 253 250 247 252 257 254 253 255 255 254 252 254 253 253 257 258 257 255 252 254 256 263 256 253 255 261 273
120 291 129 330 349 339 340 350 8 342 47 113 171 245 202 86 71 132 102 36 294 218 181 161 257 280 282 333 2 43 76 121 156 202 171 168 219 226 259 304 312 300 296 295 296 291 292 298 338 346 310 291 296 297 288 277 269 265 260 258 256 257 257 259 261 263 260 257 258 258 254 253 251 252 255 255 255 254 254 251 251 254 256 255 254 262
151 202 114 223 251 281 285 281 265 288 225 240 259 296 267 150 138 105 271 42 197 279 165 187 254 253 277 337 13 17 45 101 244 164 202 177 177 298 317 294 299 289 279 287 294 308 311 317 305 284 275 279 278 271 276 279 276 273 269 264 259 260 263 262 261 260 263 263 264 265 263 260 256 253 252 253 255 253 252 252 247 252 257 256 263 267
155 111 167 179 185 221 222 218 251 115 57 271 264 163 225 203 175 120 111 135 222 219 205 230 223 273 274 252 253 244 226 195 203 222 212 280 307 268 252 268 268 267 266 260 255 263 282 287 281 278 284 274 274 276 271 268 269 267 265 265 263 258 257 260 262 259 260 265 267 271 271 267 261 256 253 251 250 249 246 243 244 244 252 254 258 262
79 203 238 201 219 224 213 213 212 171 243 245 248 256 218 202 170 154 174 226 172 329 275 217 221 239 258 250 231 219 226 237 237 231 271 272 256 244 253 271 284 285 272 276 290 283 268 270 286 281 269 272 272 269 269 264 261 261 261 262 262 261 260 263 266 271 274 276 276 276 275 271 265 260 255 252 250 248 244 241 239 241 247 253 257 258
147 202 261 155 248 238 234 232 225 226 215 226 221 228 239 236 164 195 227 214 156 224 251 263 159 225 251 238 230 211 203 208 199 217 212 217 273 295 308 302 290 282 291 309 295 288 268 260 259 268 272 268 269 271 271 273 273 273 272 269 268 266 264 264 269 274 275 273 270 268 268 269 268 265 262 261 260 257 252 246 243 245 248 249 255 256
110 240 205 181 240 254 253 237 232 219 249 241 233 228 220 226 238 227 240 224 198 234 247 266 266 254 255 268 231 233 215 167 187 191 20 9 246 245 249 255 265 278 288 281 282 283 273 275 286 283 280 277 276 278 282 283 283 282 282 282 280 278 275 277 272 274 276 275 273 272 269 268 266 265 264 263 259 257 254 250 245 242 244 246 250 256
159 272 139 155 235 264 247 247 248 226 222 249 242 227 224 230 242 244 246 259 240 265 264 267 280 282 290 217 236 96 112 123 93 134 229 250 276 275 283 296 301 296 286 291 298 296 290 284 278 278 279 281 283 284 286 284 284 284 282 279 277 277 279 279 280 279 277 275 276 275 274 271 268 265 262 259 259 258 256 253 248 244 243 246 250 255
151 252 52 102 274 277 212 201 235 245 258 251 259 210 232 228 242 244 228 227 209 238 253 279 290 268 304 349 59 67 99 91 152 291 306 291 280 287 282 285 292 301 303 292 285 279 276 277 280 281 281 285 288 290 292 293 293 293 290 285 281 279 282 282 281 281 279 277 275 273 271 270 270 268 265 263 261 260 256 254 250 246 244 247 252 253
177 151 169 143 228 258 271 194 161 34 345 287 246 202 219 219 218 236 242 231 218 215 231 233 239 235 188 205 117 84 62 344 289 253 256 264 254 256 277 287 289 282 277 279 283 288 288 286 285 286 290 295 299 301 300 299 298 295 293 289 284 283 281 280 279 279 278 277 277 276 274 273 272 270 269 265 263 260 255 251 249 247 246 248 251 257
127 154 189 159 216 252 306 100 72 40 271 254 218 194 192 208 217 222 239 224 222 167 212 207 231 180 129 112 125 188 140 235 199 254 225 230 285 302 302 290 280 280 285 286 285 288 297 303 306 305 305 307 309 308 305 301 296 290 288 285 285 282 279 279 277 275 276 278 278 277 276 276 275 274 272 269 265 261 258 254 250 249 249 254 258 257
167 171 199 165 192 265 144 110 290 249 252 313 213 344 205 218 207 212 233 231 221 210 132 123 130 155 197 171 173 190 218 258 262 249 277 355 162 151 250 267 277 293 300 304 310 314 315 313 311 313 314 316 314 310 306 298 291 288 288 288 287 285 282 278 276 275 274 275 276 277 276 274 274 273 274 272 268 264 259 253 253 251 251 251 254 257
173 173 147 210 146 52 80 124 236 256 251 285 274 355 107 102 154 138 289 297 232 192 183 174 174 165 155 165 215 217 206 254 286 279 260 228 147 229 289 314 312 311 310 312 314 313 315 315 312 311 310 310 308 301 295 292 292 291 287 287 283 283 279 277 277 277 278 278 279 278 277 276 275 274 271 270 265 257 254 250 247 251 252 252 257 256
171 136 142 237 165 224 188 195 238 325 314 260 239 248 176 196 178 168 225 271 239 209 158 149 152 172 169 204 211 261 263 263 322 322 236 169 219 297 338 311 304 303 304 306 306 305 305 305 307 307 305 301 298 296 293 292 289 286 286 285 281 278 278 278 279 280 280 281 282 282 281 277 275 275 274 269 265 259 255 253 253 255 254 258 258 260
168 189 187 216 226 207 221 256 293 290 261 288 210 275 325 284 141 161 134 279 263 264 202 141 157 167 182 198 239 254 247 96 22 232 249 240 299 339 319 308 306 305 307 305 305 303 304 306 304 299 297 297 296 292 290 290 290 291 290 287 286 286 287 285 283 282 283 284 284 284 283 282 280 277 274 270 263 260 260 260 262 261 255 255 261 260
223 243 183 208 209 91 174 216 231 246 251 162 214 218 302 177 125 113 62 287 230 216 189 142 157 191 178 157 222 0 40 1 286 266 255 280 325 318 307 301 300 297 296 296 299 304 307 300 295 295 295 292 290 289 291 291 292 293 291 292 292 291 289 287 288 289 289 288 287 287 287 284 281 275 272 270 267 265 266 264 262 262 261 256 256 259
218 216 129 221 224 214 211 204 230 216 251 195 220 266 282 140 71 53 320 272 208 196 196 152 155 178 196 176 125 66 108 314 284 274 191 248 288 288 286 290 294 294 292 294 297 294 296 297 297 293 290 290 290 292 292 293 292 291 292 294 297 296 292 291 291 292 290 287 286 286 282 280 274 273 269 267 268 267 265 268 269 267 265 261 258 258
200 265 154 221 227 237 218 246 322 289 274 247 229 242 231 162 79 175 241 236 188 192 194 175 169 187 166 160 155 153 228 210 241 274 302 291 290 285 276 276 279 285 297 299 293 295 292 291 289 288 288 287 288 290 291 293 295 295 295 296 297 293 289 290 291 292 291 289 289 289 285 281 265 265 265 262 268 273 273 272 270 269 267 265 261 257
246 128 291 156 216 217 211 217 242 279 234 178 246 157 191 118 214 215 236 199 150 185 198 176 180 202 167 181 196 208 235 241 266 285 287 280 262 269 282 287 294 293 291 288 293 295 289 289 290 288 288 285 286 295 303 309 308 303 301 301 294 289 291 291 291 291 294 296 296 292 281 273 270 263 268 270 272 279 279 274 267 265 264 263 261 257
201 142 217 199 154 45 118 213 166 242 14 87 123 71 179 144 240 182 125 111 166 174 177 210 182 217 163 217 218 225 243 261 259 264 269 275 285 291 299 304 304 303 300 299 298 298 302 298 300 304 302 306 316 320 314 312 307 303 303 298 293 294 294 292 293 296 300 299 293 283 279 278 275 274 273 279 283 283 281 277 273 266 262 259 256 257
280 88 209 215 180 158 160 187 209 202 152 245 140 181 224 200 165 156 136 163 214 180 185 194 221 203 191 193 219 240 240 249 271 264 271 274 281 294 297 301 300 298 296 293 294 296 298 294 305 309 314 323 321 320 317 313 308 307 306 298 301 304 302 302 303 304 299 293 286 283 280 278 284 284 284 285 289 289 287 281 271 261 256 251 252 259
186 177 184 176 182 147 204 215 238 210 193 222 163 195 201 175 149 168 156 169 172 229 192 173 220 216 198 202 221 221 251 243 244 262 277 285 300 311 313 307 302 295 293 295 297 298 301 312 313 316 317 314 318 319 316 312 309 313 308 307 314 313 314 311 309 303 295 289 284 281 283 294 295 290 288 291 293 291 284 284 290 286 274 277 272 266
10 119 123 101 257 222 247 209 179 154 230 262 229 170 157 156 177 158 157 156 222 195 176 190 202 200 207 204 201 244 228 252 272 289 289 299 308 309 304 302 298 295 295 301 304 310 312 309 312 312 311 312 315 311 313 314 309 312 309 312 318 318 315 313 310 305 297 290 283 285 298 306 303 297 295 300 301 298 302 305 305 302 295 289 292 297
232 153 132 180 257 121 265 46 174 222 110 316 240 48 82 159 171 174 170 189 197 191 189 203 173 185 198 188 199 231 258 269 281 285 294 302 311 302 299 294 295 296 296 303 306 311 310 314 316 317 316 313 310 307 308 315 315 310 315 320 319 319 318 316 315 308 301 290 288 297 307 309 298 298 306 308 311 307 305 312 312 307 306 322 315 298
314 169 156 217 195 185 232 208 300 300 248 219 175 150 180 200 218 199 199 202 196 190 182 187 161 191 161 210 227 226 258 273 273 283 290 293 293 294 292 293 298 296 296 303 310 311 315 318 315 316 319 318 316 312 312 315 317 315 317 319 322 323 322 319 317 314 301 292 295 304 312 311 301 307 315 312 314 310 325 339 339 342 2 352 334 323
232 17 207 204 197 287 329 299 302 350 352 332 315 284 235 206 203 220 226 220 187 167 190 149 168 189 170 222 205 209 241 263 251 256 278 289 294 294 294 295 296 287 293 317 318 333 339 330 328 325 324 320 318 314 314 318 317 319 323 322 324 328 324 319 317 314 303 295 305 312 318 311 308 314 316 319 318 324 353 2 357 11 27 20 2 6
296 258 240 36 298 262 225 247 114 345 293 307 278 249 257 249 201 239 313 274 215 207 184 184 239 202 210 226 200 192 221 262 273 274 284 283 282 286 289 291 290 289 306 322 327 334 333 333 327 330 329 326 322 318 322 324 323 322 323 324 327 327 322 319 317 315 308 303 310 316 320 318 317 323 325 330 342 352 353 37 33 41 34 358 21 29
219 223 191 232 184 255 218 216 200 187 256 230 239 276 280 284 156 181 209 227 233 217 182 181 224 295 281 235 182 186 235 233 267 273 286 284 283 280 276 279 286 306 319 323 332 335 339 333 333 332 334 329 327 331 330 326 323 323 326 327 325 323 317 310 313 314 311 313 316 313 318 313 321 328 333 344 2 355 352 24 29 28 27 32 35 32